User: anonymous   Login
Location: Unspecified
(0.0000°N, 0.0000°E)
Time: 08:19:53
(UTC+00:00)
Language:

DSAT - Orbit

View from above orbital plane
View from above orbital plane
View from above satellite
View from above satellite

Ground track
Ground track

The orbit data is extracted from the following two-line orbital elements,

1 42794U 17036AF  18267.84369386 +.00000128 +00000-0 +16864-4 0  9994
2 42794 097.5811 318.6794 0125739 311.0360 048.0044 14.90931694068570
Epoch (UTC): 24 September 2018 20:14:55
Eccentricity: 0.0125739
inclination: 97.5811°
perigee height: 507 km
apogee height: 683 km
right ascension of ascending node: 318.6794°
argument of perigee: 311.0360°
revolutions per day: 14.90931694
mean anomaly at epoch: 48.0044°
orbit number at epoch: 6857

The dashed part of the orbit path shows where the satellite is in the earth's shadow,  

DLR